,,,PA_Meas_PMT16A,,PR_Meas_QMR101_102,,RH_Meas_QMH101,,SR_Meas_QMS101,,TA_Meas_QMH101,,GenWind,,GenWind,
date,time,status,PA,status,PR,status,RH,status,SR,status,TA,status,DirAvg,status,SpdAvg,
2010-09-04, 00:00:04,VALID,1009.11,VALID,0,VALID,103.26,VALID,0,VALID,24.6684,VALID,245,VALID,0,
2010-09-04, 00:01:04,VALID,1009.09,VALID,0,VALID,103.253,VALID,0,VALID,24.6879,VALID,245,VALID,0,
2010-09-04, 00:02:04,VALID,1009.07,VALID,0,VALID,103.26,VALID,0,VALID,24.6666,VALID,245,VALID,0,
2010-09-04, 00:03:04,VALID,1009.09,VALID,0,VALID,103.199,VALID,0,VALID,24.7074,VALID,245,VALID,0,
2010-09-04, 00:04:04,VALID,1009.1,VALID,0,VALID,103.207,VALID,0,VALID,24.7055,VALID,245,VALID,0,
2010-09-04, 00:05:04,VALID,1009.09,VALID,0,VALID,103.192,VALID,0,VALID,24.725,VALID,245,VALID,0,
2010-09-04, 00:06:04,VALID,1009.13,VALID,0,VALID,103.215,VALID,0,VALID,24.725,VALID,245,VALID,0,
2010-09-04, 00:07:04,VALID,1009.14,VALID,0,VALID,103.199,VALID,0.105969,VALID,24.725,VALID,245,VALID,0,
2010-09-04, 00:08:04,VALID,1009.12,VALID,0,VALID,103.222,VALID,0,VALID,24.7269,VALID,245,VALID,0,
2010-09-04, 00:09:04,VALID,1009.17,VALID,0,VALID,103.237,VALID,0,VALID,24.7074,VALID,245,VALID,0,
2010-09-04, 00:10:04,VALID,1009.17,VALID,0,VALID,103.26,VALID,0,VALID,24.6879,VALID,245,VALID,0,
2010-09-04, 00:11:04,VALID,1009.19,VALID,0,VALID,103.268,VALID,0,VALID,24.6684,VALID,245,VALID,0,
2010-09-04, 00:12:04,VALID,1009.21,VALID,0,VALID,103.283,VALID,0,VALID,24.6276,VALID,245,VALID,0,
2010-09-04, 00:13:04,VALID,1009.22,VALID,0,VALID,103.276,VALID,0,VALID,24.6294,VALID,245,VALID,0,
2010-09-04, 00:14:04,VALID,1009.2,VALID,0,VALID,103.276,VALID,0.105969,VALID,24.6081,VALID,245,VALID,0,
2010-09-04, 00:15:04,VALID,1009.21,VALID,0,VALID,103.291,VALID,0.105969,VALID,24.5886,VALID,245,VALID,0,
2010-09-04, 00:16:04,VALID,1009.21,VALID,0,VALID,103.283,VALID,0.105969,VALID,24.6081,VALID,245,VALID,0,
2010-09-04, 00:17:04,VALID,1009.17,VALID,0,VALID,103.253,VALID,0.105969,VALID,24.6081,VALID,245,VALID,0,
2010-09-04, 00:18:04,VALID,1009.18,VALID,0,VALID,103.26,VALID,0.105969,VALID,24.6081,VALID,245,VALID,0,
2010-09-04, 00:19:04,VALID,1009.16,VALID,0,VALID,103.26,VALID,0,VALID,24.6294,VALID,245,VALID,0,
2010-09-04, 00:20:04,VALID,1009.14,VALID,0,VALID,103.253,VALID,0,VALID,24.6276,VALID,245,VALID,0,
2010-09-04, 00:21:04,VALID,1009.14,VALID,0,VALID,103.215,VALID,0,VALID,24.6276,VALID,245,VALID,0,
2010-09-04, 00:22:04,VALID,1009.18,VALID,0,VALID,103.207,VALID,0,VALID,24.6684,VALID,245,VALID,0,
2010-09-04, 00:23:04,VALID,1009.17,VALID,0,VALID,103.207,VALID,0,VALID,24.6879,VALID,245,VALID,0,
2010-09-04, 00:24:04,VALID,1009.19,VALID,0,VALID,103.222,VALID,0,VALID,24.6879,VALID,245,VALID,0,
2010-09-04, 00:25:04,VALID,1009.19,VALID,0,VALID,103.184,VALID,0,VALID,24.7074,VALID,245,VALID,0,
2010-09-04, 00:26:04,VALID,1009.18,VALID,0,VALID,103.192,VALID,0,VALID,24.7269,VALID,245,VALID,0,
2010-09-04, 00:27:04,VALID,1009.14,VALID,0,VALID,103.176,VALID,0,VALID,24.7269,VALID,245,VALID,0,
2010-09-04, 00:28:04,VALID,1009.14,VALID,0,VALID,103.176,VALID,0,VALID,24.7464,VALID,245,VALID,0,
2010-09-04, 00:29:04,VALID,1009.14,VALID,0,VALID,103.169,VALID,0,VALID,24.7659,VALID,245,VALID,0,
2010-09-04, 00:30:04,VALID,1009.12,VALID,0,VALID,103.154,VALID,0,VALID,24.7854,VALID,245,VALID,0,
2010-09-04, 00:31:04,VALID,1009.1,VALID,0,VALID,103.138,VALID,0,VALID,24.8067,VALID,245,VALID,0,
2010-09-04, 00:32:04,VALID,1009.1,VALID,0,VALID,103.161,VALID,0,VALID,24.8049,VALID,245,VALID,0,
2010-09-04, 00:33:04,VALID,1009.07,VALID,0,VALID,103.146,VALID,0,VALID,24.8244,VALID,245,VALID,0,
2010-09-04, 00:34:04,VALID,1009.02,VALID,0,VALID,103.169,VALID,0,VALID,24.8438,VALID,245,VALID,0,
2010-09-04, 00:35:04,VALID,1009.02,VALID,0,VALID,103.161,VALID,0,VALID,24.8244,VALID,245,VALID,0,
2010-09-04, 00:36:04,VALID,1009,VALID,0,VALID,103.169,VALID,0.105969,VALID,24.8225,VALID,245,VALID,0,
2010-09-04, 00:37:04,VALID,1008.98,VALID,0,VALID,103.184,VALID,0,VALID,24.8225,VALID,245,VALID,0,
2010-09-04, 00:38:04,VALID,1008.97,VALID,0,VALID,103.184,VALID,0,VALID,24.8225,VALID,245,VALID,0,
2010-09-04, 00:39:04,VALID,1008.98,VALID,0,VALID,103.207,VALID,0,VALID,24.803,VALID,245,VALID,0,
2010-09-04, 00:40:04,VALID,1009,VALID,0,VALID,103.222,VALID,0,VALID,24.8049,VALID,245,VALID,0,
2010-09-04, 00:41:04,VALID,1009.06,VALID,0,VALID,103.245,VALID,0.105969,VALID,24.7835,VALID,245,VALID,0,
2010-09-04, 00:42:04,VALID,1009.07,VALID,0,VALID,103.253,VALID,0,VALID,24.764,VALID,245,VALID,0,
2010-09-04, 00:43:04,VALID,1009.08,VALID,0,VALID,103.222,VALID,0,VALID,24.7659,VALID,245,VALID,0,
2010-09-04, 00:44:04,VALID,1009.08,VALID,0,VALID,103.23,VALID,0.105969,VALID,24.7445,VALID,245,VALID,0,
2010-09-04, 00:45:04,VALID,1009.11,VALID,0,VALID,103.245,VALID,0,VALID,24.725,VALID,245,VALID,0,
2010-09-04, 00:46:04,VALID,1009.1,VALID,0,VALID,103.245,VALID,0.105969,VALID,24.7055,VALID,245,VALID,0,
2010-09-04, 00:47:04,VALID,1009.1,VALID,0,VALID,103.268,VALID,0,VALID,24.7055,VALID,245,VALID,0,
2010-09-04, 00:48:04,VALID,1009.13,VALID,0,VALID,103.268,VALID,0,VALID,24.7055,VALID,245,VALID,0,
2010-09-04, 00:49:04,VALID,1009.11,VALID,0,VALID,103.268,VALID,0,VALID,24.686,VALID,245,VALID,0,
2010-09-04, 00:50:04,VALID,1009.1,VALID,0,VALID,103.276,VALID,0,VALID,24.6666,VALID,245,VALID,0,
2010-09-04, 00:51:04,VALID,1009.08,VALID,0,VALID,103.268,VALID,0,VALID,24.6489,VALID,245,VALID,0,
2010-09-04, 00:52:04,VALID,1009.09,VALID,0,VALID,103.268,VALID,0,VALID,24.6703,VALID,245,VALID,0,
2010-09-04, 00:53:04,VALID,1009.1,VALID,0,VALID,103.253,VALID,0,VALID,24.6508,VALID,245,VALID,0,
2010-09-04, 00:54:04,VALID,1009.05,VALID,0,VALID,103.276,VALID,0,VALID,24.6294,VALID,245,VALID,0,
2010-09-04, 00:55:04,VALID,1009.04,VALID,0,VALID,103.283,VALID,0,VALID,24.6294,VALID,245,VALID,0,
2010-09-04, 00:56:04,VALID,1009,VALID,0,VALID,103.276,VALID,0,VALID,24.6099,VALID,245,VALID,0,
2010-09-04, 00:57:04,VALID,1008.99,VALID,0,VALID,103.276,VALID,0,VALID,24.6118,VALID,245,VALID,0,
2010-09-04, 00:58:04,VALID,1008.96,VALID,0,VALID,103.291,VALID,0,VALID,24.5905,VALID,245,VALID,0,
2010-09-04, 00:59:04,VALID,1008.97,VALID,0,VALID,103.253,VALID,0,VALID,24.5905,VALID,245,VALID,0,
2010-09-04, 01:00:04,VALID,1008.93,VALID,0,VALID,103.283,VALID,0,VALID,24.5905,VALID,245,VALID,0,
2010-09-04, 01:01:04,VALID,1008.95,VALID,0,VALID,103.276,VALID,0,VALID,24.571,VALID,245,VALID,0,
2010-09-04, 01:02:04,VALID,1008.93,VALID,0,VALID,103.283,VALID,0,VALID,24.5923,VALID,245,VALID,0,
2010-09-04, 01:03:04,VALID,1008.92,VALID,0,VALID,103.276,VALID,0,VALID,24.5923,VALID,245,VALID,0,
2010-09-04, 01:04:04,VALID,1008.91,VALID,0,VALID,103.283,VALID,0,VALID,24.571,VALID,245,VALID,0,
2010-09-04, 01:05:04,VALID,1008.92,VALID,0,VALID,103.276,VALID,0,VALID,24.5923,VALID,245,VALID,0,
2010-09-04, 01:06:04,VALID,1008.89,VALID,0,VALID,103.291,VALID,0.105969,VALID,24.571,VALID,245,VALID,0,
2010-09-04, 01:07:04,VALID,1008.91,VALID,0,VALID,103.268,VALID,0,VALID,24.5496,VALID,245,VALID,0,
2010-09-04, 01:08:04,VALID,1008.92,VALID,0,VALID,103.26,VALID,0.105969,VALID,24.571,VALID,245,VALID,0,
2010-09-04, 01:09:04,VALID,1008.91,VALID,0,VALID,103.237,VALID,0,VALID,24.5905,VALID,245,VALID,0,
2010-09-04, 01:10:04,VALID,1008.93,VALID,0,VALID,103.215,VALID,0,VALID,24.6294,VALID,245,VALID,0,
2010-09-04, 01:11:04,VALID,1008.95,VALID,0,VALID,103.207,VALID,0,VALID,24.6294,VALID,245,VALID,0,
2010-09-04, 01:12:04,VALID,1008.94,VALID,0,VALID,103.237,VALID,0,VALID,24.6081,VALID,245,VALID,0,
2010-09-04, 01:13:04,VALID,1008.96,VALID,0,VALID,103.245,VALID,0,VALID,24.5886,VALID,245,VALID,0,
2010-09-04, 01:14:04,VALID,1008.96,VALID,0,VALID,103.192,VALID,0,VALID,24.6276,VALID,245,VALID,0,
2010-09-04, 01:15:04,VALID,1008.95,VALID,0,VALID,103.199,VALID,0,VALID,24.6471,VALID,245,VALID,0,
2010-09-04, 01:16:04,VALID,1008.91,VALID,0,VALID,103.192,VALID,0,VALID,24.6684,VALID,245,VALID,0,
2010-09-04, 01:17:04,VALID,1008.91,VALID,0,VALID,103.207,VALID,0,VALID,24.6471,VALID,245,VALID,0,
2010-09-04, 01:18:04,VALID,1008.89,VALID,0,VALID,103.154,VALID,0,VALID,24.6666,VALID,245,VALID,0,
2010-09-04, 01:19:04,VALID,1008.87,VALID,0,VALID,103.161,VALID,0,VALID,24.7074,VALID,245,VALID,0,
2010-09-04, 01:20:04,VALID,1008.9,VALID,0,VALID,103.138,VALID,0,VALID,24.7055,VALID,245,VALID,0,
2010-09-04, 01:21:04,VALID,1008.9,VALID,0,VALID,103.146,VALID,0,VALID,24.7464,VALID,245,VALID,0,
2010-09-04, 01:22:04,VALID,1008.89,VALID,0,VALID,103.176,VALID,0,VALID,24.7269,VALID,245,VALID,0,
2010-09-04, 01:23:04,VALID,1008.9,VALID,0,VALID,103.199,VALID,0.105969,VALID,24.7269,VALID,245,VALID,0,
2010-09-04, 01:24:04,VALID,1008.9,VALID,0,VALID,103.215,VALID,0,VALID,24.7074,VALID,245,VALID,0,
2010-09-04, 01:25:04,VALID,1008.94,VALID,0,VALID,103.23,VALID,0.105969,VALID,24.686,VALID,245,VALID,0,
2010-09-04, 01:26:04,VALID,1008.92,VALID,0,VALID,103.23,VALID,0,VALID,24.6471,VALID,245,VALID,0,
2010-09-04, 01:27:04,VALID,1008.91,VALID,0,VALID,103.253,VALID,0.105969,VALID,24.6276,VALID,245,VALID,0,
2010-09-04, 01:28:04,VALID,1008.9,VALID,0,VALID,103.237,VALID,0,VALID,24.6276,VALID,245,VALID,0,
2010-09-04, 01:29:04,VALID,1008.91,VALID,0,VALID,103.253,VALID,0,VALID,24.6294,VALID,245,VALID,0,
2010-09-04, 01:30:04,VALID,1008.87,VALID,0,VALID,103.253,VALID,0,VALID,24.6276,VALID,245,VALID,0,
2010-09-04, 01:31:04,VALID,1008.87,VALID,0,VALID,103.245,VALID,0,VALID,24.6294,VALID,245,VALID,0,
2010-09-04, 01:32:04,VALID,1008.86,VALID,0,VALID,103.253,VALID,0,VALID,24.5886,VALID,245,VALID,0,
2010-09-04, 01:33:04,VALID,1008.87,VALID,0,VALID,103.222,VALID,0,VALID,24.6081,VALID,245,VALID,0,
2010-09-04, 01:34:04,VALID,1008.86,VALID,0,VALID,103.199,VALID,0,VALID,24.6294,VALID,245,VALID,0,
2010-09-04, 01:35:04,VALID,1008.84,VALID,0,VALID,103.199,VALID,0.105969,VALID,24.6276,VALID,245,VALID,0,
2010-09-04, 01:36:04,VALID,1008.84,VALID,0,VALID,103.215,VALID,0,VALID,24.6294,VALID,245,VALID,0,
2010-09-04, 01:37:04,VALID,1008.83,VALID,0,VALID,103.192,VALID,0,VALID,24.6294,VALID,245,VALID,0,
2010-09-04, 01:38:04,VALID,1008.86,VALID,0,VALID,103.176,VALID,0,VALID,24.6489,VALID,304,VALID,0.366406,
2010-09-04, 01:39:04,VALID,1008.8,VALID,0,VALID,103.184,VALID,0,VALID,24.6489,VALID,304,VALID,0.290625,
2010-09-04, 01:40:04,VALID,1008.79,VALID,0,VALID,103.192,VALID,0,VALID,24.6684,VALID,304,VALID,0.335938,
2010-09-04, 01:41:04,VALID,1008.75,VALID,0,VALID,103.176,VALID,0,VALID,24.6489,VALID,304,VALID,0.259766,
2010-09-04, 01:42:04,VALID,1008.75,VALID,0,VALID,103.215,VALID,0,VALID,24.6703,VALID,304,VALID,0.241406,
2010-09-04, 01:43:04,VALID,1008.72,VALID,0,VALID,103.222,VALID,0,VALID,24.6489,VALID,304,VALID,0.217187,
2010-09-04, 01:44:04,VALID,1008.68,VALID,0,VALID,103.237,VALID,0,VALID,24.6294,VALID,304,VALID,0.184766,
2010-09-04, 01:45:04,VALID,1008.66,VALID,0,VALID,103.253,VALID,0,VALID,24.6099,VALID,304,VALID,0.439063,
2010-09-04, 01:46:04,VALID,1008.63,VALID,0,VALID,103.268,VALID,0,VALID,24.5905,VALID,304,VALID,0.303516,
2010-09-04, 01:47:04,VALID,1008.6,VALID,0,VALID,103.291,VALID,0,VALID,24.5728,VALID,304,VALID,0.269922,
2010-09-04, 01:48:04,VALID,1008.57,VALID,0,VALID,103.283,VALID,0,VALID,24.532,VALID,304,VALID,0,
2010-09-04, 01:49:04,VALID,1008.54,VALID,0,VALID,103.268,VALID,0,VALID,24.5125,VALID,304,VALID,0,
2010-09-04, 01:50:04,VALID,1008.54,VALID,0,VALID,103.268,VALID,0,VALID,24.5125,VALID,304,VALID,0,
2010-09-04, 01:51:04,VALID,1008.52,VALID,0,VALID,103.268,VALID,0,VALID,24.5338,VALID,304,VALID,0,
2010-09-04, 01:52:04,VALID,1008.5,VALID,0,VALID,103.268,VALID,0,VALID,24.5144,VALID,304,VALID,0,
2010-09-04, 01:53:04,VALID,1008.46,VALID,0,VALID,103.268,VALID,0,VALID,24.493,VALID,304,VALID,0,
2010-09-04, 01:54:04,VALID,1008.42,VALID,0,VALID,103.26,VALID,0,VALID,24.493,VALID,304,VALID,0,
2010-09-04, 01:55:04,VALID,1008.38,VALID,0,VALID,103.26,VALID,0,VALID,24.5125,VALID,304,VALID,0,
2010-09-04, 01:56:04,VALID,1008.36,VALID,0,VALID,103.23,VALID,0,VALID,24.5125,VALID,304,VALID,0,
2010-09-04, 01:57:04,VALID,1008.34,VALID,0,VALID,103.207,VALID,0,VALID,24.532,VALID,357,VALID,0,
2010-09-04, 01:58:04,VALID,1008.34,VALID,0,VALID,103.222,VALID,0,VALID,24.532,VALID,357,VALID,0,
2010-09-04, 01:59:04,VALID,1008.33,VALID,0,VALID,103.245,VALID,0,VALID,24.5125,VALID,357,VALID,0,
2010-09-04, 02:00:04,VALID,1008.33,VALID,0,VALID,103.253,VALID,0,VALID,24.5125,VALID,357,VALID,0,
2010-09-04, 02:01:04,VALID,1008.33,VALID,0,VALID,103.215,VALID,0,VALID,24.493,VALID,357,VALID,0,
2010-09-04, 02:02:04,VALID,1008.3,VALID,0,VALID,103.222,VALID,0,VALID,24.493,VALID,357,VALID,0,
2010-09-04, 02:03:04,VALID,1008.3,VALID,0,VALID,103.23,VALID,0,VALID,24.493,VALID,2,VALID,0,
2010-09-04, 02:04:04,VALID,1008.28,VALID,0,VALID,103.23,VALID,0,VALID,24.493,VALID,2,VALID,0,
2010-09-04, 02:05:04,VALID,1008.3,VALID,0,VALID,103.23,VALID,0,VALID,24.493,VALID,2,VALID,0.390234,
2010-09-04, 02:06:04,VALID,1008.3,VALID,0,VALID,103.283,VALID,0,VALID,24.454,VALID,2,VALID,0.357422,
2010-09-04, 02:07:04,VALID,1008.32,VALID,0,VALID,103.298,VALID,0,VALID,24.415,VALID,2,VALID,0.297656,
2010-09-04, 02:08:04,VALID,1008.28,VALID,0,VALID,103.314,VALID,0,VALID,24.3761,VALID,2,VALID,0.0367187,
2010-09-04, 02:09:04,VALID,1008.28,VALID,0,VALID,103.298,VALID,0,VALID,24.3779,VALID,2,VALID,0,
2010-09-04, 02:10:04,VALID,1008.28,VALID,0,VALID,103.298,VALID,0,VALID,24.3371,VALID,2,VALID,0,
2010-09-04, 02:11:04,VALID,1008.31,VALID,0,VALID,103.306,VALID,0,VALID,24.3176,VALID,2,VALID,0,
2010-09-04, 02:12:04,VALID,1008.3,VALID,0,VALID,103.298,VALID,0,VALID,24.2981,VALID,2,VALID,0,
2010-09-04, 02:13:04,VALID,1008.31,VALID,0,VALID,103.314,VALID,0,VALID,24.2981,VALID,2,VALID,0,
2010-09-04, 02:14:04,VALID,1008.33,VALID,0,VALID,103.291,VALID,0,VALID,24.2786,VALID,2,VALID,0,
2010-09-04, 02:15:04,VALID,1008.31,VALID,0,VALID,103.298,VALID,0,VALID,24.2786,VALID,2,VALID,0,
2010-09-04, 02:16:04,VALID,1008.33,VALID,0,VALID,103.306,VALID,0,VALID,24.2786,VALID,2,VALID,0,
2010-09-04, 02:17:04,VALID,1008.31,VALID,0,VALID,103.291,VALID,0,VALID,24.2786,VALID,2,VALID,0,
2010-09-04, 02:18:04,VALID,1008.3,VALID,0,VALID,103.298,VALID,0,VALID,24.2786,VALID,2,VALID,0,
2010-09-04, 02:19:04,VALID,1008.31,VALID,0,VALID,103.291,VALID,0,VALID,24.3,VALID,2,VALID,0,
2010-09-04, 02:20:04,VALID,1008.28,VALID,0,VALID,103.268,VALID,0,VALID,24.2786,VALID,2,VALID,0,
2010-09-04, 02:21:04,VALID,1008.29,VALID,0,VALID,103.291,VALID,0,VALID,24.2591,VALID,2,VALID,0,
2010-09-04, 02:22:04,VALID,1008.27,VALID,0,VALID,103.268,VALID,0,VALID,24.2786,VALID,2,VALID,0,
2010-09-04, 02:23:04,VALID,1008.26,VALID,0,VALID,103.245,VALID,0,VALID,24.3,VALID,2,VALID,0,
2010-09-04, 02:24:04,VALID,1008.29,VALID,0,VALID,103.268,VALID,0,VALID,24.2591,VALID,2,VALID,0,
2010-09-04, 02:25:04,VALID,1008.22,VALID,0,VALID,103.276,VALID,0,VALID,24.2591,VALID,2,VALID,0,
2010-09-04, 02:26:04,VALID,1008.23,VALID,0,VALID,103.26,VALID,0,VALID,24.261,VALID,2,VALID,0,
2010-09-04, 02:27:04,VALID,1008.24,VALID,0,VALID,103.276,VALID,0,VALID,24.2591,VALID,2,VALID,0,
2010-09-04, 02:28:04,VALID,1008.23,VALID,0,VALID,103.276,VALID,0,VALID,24.2396,VALID,2,VALID,0,
2010-09-04, 02:29:04,VALID,1008.23,VALID,0,VALID,103.283,VALID,0,VALID,24.261,VALID,2,VALID,0,
2010-09-04, 02:30:04,VALID,1008.19,VALID,0,VALID,103.245,VALID,0,VALID,24.2415,VALID,2,VALID,0,
2010-09-04, 02:31:04,VALID,1008.21,VALID,0,VALID,103.253,VALID,0,VALID,24.2415,VALID,2,VALID,0,
2010-09-04, 02:32:04,VALID,1008.19,VALID,0,VALID,103.283,VALID,0,VALID,24.2202,VALID,2,VALID,0,
2010-09-04, 02:33:04,VALID,1008.21,VALID,0,VALID,103.268,VALID,0,VALID,24.2007,VALID,2,VALID,0,
2010-09-04, 02:34:04,VALID,1008.21,VALID,0,VALID,103.283,VALID,0,VALID,24.222,VALID,2,VALID,0,
2010-09-04, 02:35:04,VALID,1008.22,VALID,0,VALID,103.26,VALID,0,VALID,24.2007,VALID,2,VALID,0,
2010-09-04, 02:36:04,VALID,1008.21,VALID,0,VALID,103.283,VALID,0,VALID,24.1793,VALID,2,VALID,0,
2010-09-04, 02:37:04,VALID,1008.18,VALID,0,VALID,103.276,VALID,0.105969,VALID,24.2007,VALID,2,VALID,0,
2010-09-04, 02:38:04,VALID,1008.18,VALID,0,VALID,103.26,VALID,0.105969,VALID,24.1599,VALID,2,VALID,0,
2010-09-04, 02:39:04,VALID,1008.18,VALID,0,VALID,103.245,VALID,0.105969,VALID,24.1599,VALID,2,VALID,0,
2010-09-04, 02:40:04,VALID,1008.2,VALID,0,VALID,103.245,VALID,0,VALID,24.1812,VALID,2,VALID,0,
2010-09-04, 02:41:04,VALID,1008.18,VALID,0,VALID,103.245,VALID,0,VALID,24.1617,VALID,2,VALID,0,
2010-09-04, 02:42:04,VALID,1008.19,VALID,0,VALID,103.237,VALID,0.105969,VALID,24.1599,VALID,2,VALID,0,
2010-09-04, 02:43:04,VALID,1008.15,VALID,0,VALID,103.245,VALID,0,VALID,24.1404,VALID,2,VALID,0,
2010-09-04, 02:44:04,VALID,1008.15,VALID,0,VALID,103.26,VALID,0.105969,VALID,24.1599,VALID,2,VALID,0,
2010-09-04, 02:45:04,VALID,1008.17,VALID,0,VALID,103.26,VALID,0.105969,VALID,24.1404,VALID,2,VALID,0,
2010-09-04, 02:46:04,VALID,1008.15,VALID,0,VALID,103.237,VALID,0,VALID,24.1209,VALID,2,VALID,0,
2010-09-04, 02:47:04,VALID,1008.17,VALID,0,VALID,103.26,VALID,0.105969,VALID,24.1014,VALID,2,VALID,0,
2010-09-04, 02:48:04,VALID,1008.17,VALID,0,VALID,103.253,VALID,0.105969,VALID,24.1014,VALID,2,VALID,0,
2010-09-04, 02:49:04,VALID,1008.16,VALID,0,VALID,103.26,VALID,0,VALID,24.1014,VALID,2,VALID,0,
2010-09-04, 02:50:04,VALID,1008.15,VALID,0,VALID,103.26,VALID,0.105969,VALID,24.0819,VALID,2,VALID,0,
2010-09-04, 02:51:04,VALID,1008.13,VALID,0,VALID,103.245,VALID,0.105969,VALID,24.0819,VALID,2,VALID,0,
2010-09-04, 02:52:04,VALID,1008.13,VALID,0,VALID,103.26,VALID,0.105969,VALID,24.0819,VALID,2,VALID,0,
2010-09-04, 02:53:04,VALID,1008.14,VALID,0,VALID,103.245,VALID,0,VALID,24.0819,VALID,2,VALID,0,
2010-09-04, 02:54:04,VALID,1008.12,VALID,0,VALID,103.245,VALID,0,VALID,24.0624,VALID,2,VALID,0,
2010-09-04, 02:55:04,VALID,1008.11,VALID,0,VALID,103.253,VALID,0.105969,VALID,24.0429,VALID,2,VALID,0,
2010-09-04, 02:56:04,VALID,1008.08,VALID,0,VALID,103.237,VALID,0.105969,VALID,24.0624,VALID,2,VALID,0,
2010-09-04, 02:57:04,VALID,1008.05,VALID,0,VALID,103.237,VALID,0.105969,VALID,24.0429,VALID,2,VALID,0,
2010-09-04, 02:58:04,VALID,1008.06,VALID,0,VALID,103.253,VALID,0.105969,VALID,24.0429,VALID,2,VALID,0,
2010-09-04, 02:59:04,VALID,1008.04,VALID,0,VALID,103.222,VALID,0.105969,VALID,24.0429,VALID,2,VALID,0,
2010-09-04, 03:00:04,VALID,1008.03,VALID,0,VALID,103.23,VALID,0.105969,VALID,24.0429,VALID,2,VALID,0,
2010-09-04, 03:01:04,VALID,1008.07,VALID,0,VALID,103.245,VALID,0,VALID,24.0429,VALID,2,VALID,0,
2010-09-04, 03:02:04,VALID,1008.06,VALID,0,VALID,103.222,VALID,0.105969,VALID,24.0429,VALID,2,VALID,0,
2010-09-04, 03:03:04,VALID,1008.04,VALID,0,VALID,103.199,VALID,0.105969,VALID,24.0429,VALID,2,VALID,0,
2010-09-04, 03:04:04,VALID,1008.04,VALID,0,VALID,103.207,VALID,0.105969,VALID,24.0624,VALID,2,VALID,0,
2010-09-04, 03:05:04,VALID,1008.04,VALID,0,VALID,103.199,VALID,0,VALID,24.0624,VALID,2,VALID,0,
2010-09-04, 03:06:05,VALID,1008.01,VALID,0,VALID,103.184,VALID,0.105969,VALID,24.0624,VALID,2,VALID,0,
2010-09-04, 03:07:05,VALID,1008.01,VALID,0,VALID,103.184,VALID,0,VALID,24.0624,VALID,2,VALID,0,
2010-09-04, 03:08:05,VALID,1007.98,VALID,0,VALID,103.199,VALID,0.105969,VALID,24.0429,VALID,2,VALID,0,
2010-09-04, 03:09:05,VALID,1007.98,VALID,0,VALID,103.192,VALID,0.105969,VALID,24.0429,VALID,2,VALID,0,
2010-09-04, 03:10:05,VALID,1007.98,VALID,0,VALID,103.169,VALID,0.105969,VALID,24.0624,VALID,2,VALID,0,
2010-09-04, 03:11:05,VALID,1007.98,VALID,0,VALID,103.169,VALID,0.105969,VALID,24.0624,VALID,2,VALID,0,
2010-09-04, 03:12:05,VALID,1007.99,VALID,0,VALID,103.184,VALID,0.105969,VALID,24.0624,VALID,2,VALID,0,
2010-09-04, 03:13:05,VALID,1008.01,VALID,0,VALID,103.184,VALID,0.105969,VALID,24.0429,VALID,2,VALID,0,
2010-09-04, 03:14:05,VALID,1008,VALID,0,VALID,103.192,VALID,0.105969,VALID,24.0216,VALID,2,VALID,0,
2010-09-04, 03:15:05,VALID,1008.04,VALID,0,VALID,103.176,VALID,0.105969,VALID,24.0429,VALID,2,VALID,0,
2010-09-04, 03:16:05,VALID,1008.02,VALID,0,VALID,103.192,VALID,0.105969,VALID,24.0429,VALID,2,VALID,0,
2010-09-04, 03:17:05,VALID,1008.06,VALID,0,VALID,103.184,VALID,0.105969,VALID,24.0235,VALID,2,VALID,0,
2010-09-04, 03:18:05,VALID,1008.06,VALID,0,VALID,103.184,VALID,0.105969,VALID,24.004,VALID,2,VALID,0,
2010-09-04, 03:19:05,VALID,1008.05,VALID,0,VALID,103.184,VALID,0.105969,VALID,24.0235,VALID,2,VALID,0,
2010-09-04, 03:20:05,VALID,1008.07,VALID,0,VALID,103.176,VALID,0.211938,VALID,24.0022,VALID,2,VALID,0,
2010-09-04, 03:21:05,VALID,1008.07,VALID,0,VALID,103.176,VALID,0.105969,VALID,24.0235,VALID,2,VALID,0,
2010-09-04, 03:22:05,VALID,1008.08,VALID,0,VALID,103.154,VALID,0.105969,VALID,24.0235,VALID,2,VALID,0,
2010-09-04, 03:23:05,VALID,1008.06,VALID,0,VALID,103.131,VALID,0.105969,VALID,24.0235,VALID,2,VALID,0,
2010-09-04, 03:24:05,VALID,1008.04,VALID,0,VALID,103.161,VALID,0.105969,VALID,24.0235,VALID,2,VALID,0,
2010-09-04, 03:25:05,VALID,1008.04,VALID,0,VALID,103.146,VALID,0.105969,VALID,24.0235,VALID,2,VALID,0,
2010-09-04, 03:26:05,VALID,1008.01,VALID,0,VALID,103.154,VALID,0.105969,VALID,24.0235,VALID,2,VALID,0,
2010-09-04, 03:27:05,VALID,1008.01,VALID,0,VALID,103.154,VALID,0.105969,VALID,24.0235,VALID,2,VALID,0,
2010-09-04, 03:28:05,VALID,1008.02,VALID,0,VALID,103.146,VALID,0.105969,VALID,24.0429,VALID,2,VALID,0,
2010-09-04, 03:29:05,VALID,1008.03,VALID,0,VALID,103.138,VALID,0.105969,VALID,24.0429,VALID,2,VALID,0,
2010-09-04, 03:30:05,VALID,1008.01,VALID,0,VALID,103.138,VALID,0.105969,VALID,24.0411,VALID,2,VALID,0,
2010-09-04, 03:31:05,VALID,1008.02,VALID,0,VALID,103.123,VALID,0.105969,VALID,24.0624,VALID,2,VALID,0,
2010-09-04, 03:32:05,VALID,1008.03,VALID,0,VALID,103.123,VALID,0.105969,VALID,24.0624,VALID,2,VALID,0,
2010-09-04, 03:33:05,VALID,1008.04,VALID,0,VALID,103.131,VALID,0,VALID,24.0624,VALID,2,VALID,0,
2010-09-04, 03:34:05,VALID,1008.03,VALID,0,VALID,103.123,VALID,0.105969,VALID,24.0624,VALID,2,VALID,0,
2010-09-04, 03:35:05,VALID,1008.07,VALID,0,VALID,103.123,VALID,0.105969,VALID,24.0624,VALID,2,VALID,0,
2010-09-04, 03:36:05,VALID,1008.06,VALID,0,VALID,103.108,VALID,0.105969,VALID,24.0819,VALID,2,VALID,0,
2010-09-04, 03:37:05,VALID,1008.07,VALID,0,VALID,103.108,VALID,0,VALID,24.0624,VALID,2,VALID,0,
2010-09-04, 03:38:05,VALID,1008.07,VALID,0,VALID,103.093,VALID,0.105969,VALID,24.0624,VALID,36,VALID,0,
2010-09-04, 03:39:05,VALID,1008.1,VALID,0,VALID,103.161,VALID,0.105969,VALID,24.0235,VALID,128,VALID,0,
2010-09-04, 03:40:05,VALID,1008.13,VALID,0,VALID,103.199,VALID,0,VALID,24.0253,VALID,128,VALID,0,
2010-09-04, 03:41:05,VALID,1008.14,VALID,0,VALID,103.199,VALID,0.105969,VALID,23.9845,VALID,128,VALID,0,
2010-09-04, 03:42:05,VALID,1008.14,VALID,0,VALID,103.176,VALID,0,VALID,23.9845,VALID,128,VALID,0,
2010-09-04, 03:43:05,VALID,1008.15,VALID,0,VALID,103.161,VALID,0.105969,VALID,24.004,VALID,128,VALID,0,
2010-09-04, 03:44:05,VALID,1008.13,VALID,0,VALID,103.138,VALID,0.105969,VALID,24.004,VALID,128,VALID,0,
2010-09-04, 03:45:05,VALID,1008.16,VALID,0,VALID,103.108,VALID,0.105969,VALID,24.0235,VALID,141,VALID,0,
2010-09-04, 03:46:05,VALID,1008.15,VALID,0,VALID,103.1,VALID,0.105969,VALID,24.0429,VALID,159,VALID,0,
2010-09-04, 03:47:05,VALID,1008.17,VALID,0,VALID,103.093,VALID,0.105969,VALID,24.0429,VALID,169,VALID,0,
2010-09-04, 03:48:05,VALID,1008.15,VALID,0,VALID,103.077,VALID,0.105969,VALID,24.0411,VALID,169,VALID,0,
2010-09-04, 03:49:05,VALID,1008.16,VALID,0,VALID,103.085,VALID,0.105969,VALID,24.0837,VALID,169,VALID,0,
2010-09-04, 03:50:05,VALID,1008.14,VALID,0,VALID,103.085,VALID,0,VALID,24.1032,VALID,169,VALID,0,
2010-09-04, 03:51:05,VALID,1008.14,VALID,0,VALID,103.047,VALID,0.105969,VALID,24.0819,VALID,169,VALID,0,
2010-09-04, 03:52:05,VALID,1008.16,VALID,0,VALID,103.062,VALID,0.105969,VALID,24.1014,VALID,169,VALID,0,
2010-09-04, 03:53:05,VALID,1008.15,VALID,0,VALID,103.093,VALID,0,VALID,24.0819,VALID,169,VALID,0,
2010-09-04, 03:54:05,VALID,1008.15,VALID,0,VALID,103.093,VALID,0.105969,VALID,24.0819,VALID,169,VALID,0,
2010-09-04, 03:55:05,VALID,1008.17,VALID,0,VALID,103.093,VALID,0.105969,VALID,24.0819,VALID,169,VALID,0,